Weather History for KTTN - December, 2012

Change the Weather History Date:

Sunday, December 23, 2012

  Actual Average Record
Temperature  
Mean Temperature 39 °F 33 °F  
Max Temperature 45 °F 41 °F 70 °F (1891)
Min Temperature 32 °F 25 °F 4 °F (1989)
Degree Days  
Heating Degree Days 26 32  
Month to date heating degree days 497 657  
Since 1 July heating degree days 1504 1633  
Cooling Degree Days 0 0  
Month to date cooling degree days 0 0  
Year to date cooling degree days 1234 965  
Moisture  
Dew Point 20 °F    
Average Humidity 46    
Maximum Humidity 64    
Minimum Humidity 28    
Precipitation  
Precipitation 0.00 in 0.12 in 1.55 in (1907)
Month to date precipitation 2.72 2.98  
Year to date precipitation 35.95 45.72  
Sea Level Pressure  
Sea Level Pressure 29.92 in    
Wind  
Wind Speed 7 mph (WNW)    
Max Wind Speed 16 mph    
Max Gust Speed 23 mph    
Visibility 10 miles    
Events      
T = Trace of Precipitation, MM = Missing Value Source: NWS Daily Summary

Daily Weather History Graph

Daily Weather History Graph

Search for Another Location

Airport or City:

Trip Planner

Search our weather history database for the weather conditions in past years. The results will help you decide how hot, cold, wet, or windy it might be!

Date:

Astronomy

Dec. 23, 2012 Rise Set
Actual Time 7:19 AM EST 4:37 PM EST
Civil Twilight 6:48 AM EST 5:08 PM EST
Nautical Twilight 6:14 AM EST 5:42 PM EST
Astronomical Twilight 5:41 AM EST 6:15 PM EST
Moon 1:27 PM EST (12/23) 2:59 AM EST (12/23)
Length of Visible Light 10h 19m
Length of Day
9h 18m
Waxing Gibbous, 81% of the Moon is Illuminated
Dec 23
Waxing Gibbous
Dec 28
Full
Jan 4
Last Quarter
Jan 11
New
Jan 18
First Quarter

Hourly Weather History & Observations

Time (EST) Temp. Windchill Dew Point Humidity Pressure Visibility Wind Dir Wind Speed Gust Speed Precip Events Conditions
12:53 AM 36.0 °F 26.7 °F 21.9 °F 57% 29.88 in 10.0 mi NW 15.0 mph 20.7 mph N/A   Overcast
1:53 AM 36.0 °F 29.6 °F 21.9 °F 57% 29.91 in 10.0 mi WNW 8.1 mph 21.9 mph N/A   Overcast
2:53 AM 36.0 °F 28.0 °F 21.9 °F 57% 29.94 in 10.0 mi WNW 11.5 mph - N/A   Overcast
3:53 AM 35.1 °F 27.4 °F 21.9 °F 59% 29.94 in 10.0 mi WNW 10.4 mph 16.1 mph N/A   Overcast
4:53 AM 35.1 °F 30.1 °F 21.9 °F 59% 29.94 in 10.0 mi West 5.8 mph - N/A   Overcast
5:53 AM 35.1 °F 27.4 °F 21.9 °F 59% 29.96 in 10.0 mi West 10.4 mph - N/A   Overcast
6:53 AM 34.0 °F 28.0 °F 21.9 °F 61% 29.97 in 10.0 mi West 6.9 mph - N/A   Mostly Cloudy
7:53 AM 33.1 °F 26.1 °F 21.9 °F 64% 29.98 in 10.0 mi West 8.1 mph - N/A   Mostly Cloudy
8:53 AM 34.0 °F 27.2 °F 23.0 °F 64% 29.99 in 10.0 mi West 8.1 mph - N/A   Partly Cloudy
9:53 AM 36.0 °F 29.0 °F 23.0 °F 59% 29.98 in 10.0 mi West 9.2 mph - N/A   Clear
10:53 AM 37.9 °F 31.5 °F 21.0 °F 51% 29.96 in 10.0 mi WNW 9.2 mph - N/A   Clear
11:53 AM 39.0 °F 32.8 °F 19.9 °F 46% 29.92 in 10.0 mi West 9.2 mph - N/A   Clear
12:53 PM 41.0 °F 33.9 °F 15.1 °F 35% 29.89 in 10.0 mi WNW 12.7 mph - N/A   Clear
1:53 PM 43.0 °F 37.7 °F 15.1 °F 32% 29.87 in 10.0 mi WNW 9.2 mph - N/A   Clear
2:53 PM 44.1 °F 39.5 °F 14.0 °F 30% 29.87 in 10.0 mi West 8.1 mph - N/A   Clear
3:53 PM 44.1 °F 40.8 °F 14.0 °F 30% 29.87 in 10.0 mi WNW 5.8 mph - N/A   Clear
4:53 PM 37.9 °F 32.7 °F 18.0 °F 45% 29.88 in 10.0 mi SW 6.9 mph - N/A   Clear
5:53 PM 39.0 °F - 19.9 °F 46% 29.88 in 10.0 mi Calm Calm - N/A   Clear
6:53 PM 37.0 °F 33.3 °F 19.9 °F 50% 29.91 in 10.0 mi WSW 4.6 mph - N/A   Clear
7:53 PM 37.0 °F 34.5 °F 19.9 °F 50% 29.91 in 10.0 mi West 3.5 mph - N/A   Clear
8:53 PM 35.1 °F 32.2 °F 19.9 °F 54% 29.91 in 10.0 mi NNW 3.5 mph - N/A   Clear
9:53 PM 33.1 °F 30.0 °F 19.9 °F 59% 29.93 in 10.0 mi NW 3.5 mph - N/A   Clear
10:53 PM 34.0 °F 29.8 °F 21.0 °F 59% 29.94 in 10.0 mi NW 4.6 mph - N/A   Clear
11:53 PM 33.1 °F - 21.9 °F 64% 29.95 in 10.0 mi Calm Calm - N/A   Clear